Regional Weather Roundup
Issued by NWS Little Rock, AR

Home | Current Version | Previous Version | Graphics & Text | Print | Product List | Glossary On
Versions: 1 2 3 4 5 6 7 8 9 10 11 12 13 14 15 16 17 18 19 20 21 22 23 24 25 26 27 28 29 30 31 32 33 34 35 36 37 38 39 40 41 42 43 44 45 46 47 48 49 50
000
ASUS44 KLZK 311905
RWRLZK

WEATHER ROUNDUP FOR ARKANSAS
NATIONAL WEATHER SERVICE LITTLE ROCK AR
200 PM CDT MON AUG 31 2015

NOTE: "FAIR" INDICATES FEW OR NO CLOUDS BELOW 12,000 FEET WITH NO
SIGNIFICANT WEATHER AND/OR OBSTRUCTIONS TO VISIBILITY.

ARZ001-003-010-029-312000-
NORTHWEST ARKANSAS

CITY           SKY/WX    TMP DP  RH WIND       PRES   REMARKS
FAYETTEVILLE   MOSUNNY   85  70  60 S12       30.07F HX  89
FORT SMITH     SUNNY     91  65  41 CALM      30.02F HX  93
BENTONVILLE    SUNNY     88  66  48 SW12      30.07F HX  90
ROGERS         SUNNY     88  67  49 SW12      30.07F HX  91
SILOAM SPGS    SUNNY     88  66  48 S15       30.04F HX  90
HIGHFILL       SUNNY     88  69  53 S10G20    30.06F HX  92
SPRINGDALE     SUNNY     88  66  48 SW12      30.09F HX  90
$$

ARZ004-005-016-312000-
NORTH CENTRAL ARKANSAS

CITY           SKY/WX    TMP DP  RH WIND       PRES   REMARKS
BATESVILLE     SUNNY     90  72  55 SE5       30.05F HX  96
FLIPPIN        MOSUNNY   90  64  43 CALM      30.04F HX  91
MTN HOME       MOSUNNY   88  68  51 VRB5      30.05F HX  91
$$

ARZ040-041-312000-
WEST CENTRAL ARKANSAS

CITY           SKY/WX    TMP DP  RH WIND       PRES   REMARKS
MENA           SUNNY     93  63  36 SW3       30.06S HX  94
MOUNT IDA      MOSUNNY   92  65  40 VRB5      30.02F HX  94
$$

ARZ009-017-025-026-028-312000-
NORTHEAST ARKANSAS

CITY           SKY/WX    TMP DP  RH WIND       PRES   REMARKS
JONESBORO      SUNNY     88  72  58 SE8       30.06F HX  94
NEWPORT        SUNNY     89  71  55 VRB6      30.07F HX  95
WALNUT RIDGE   SUNNY     88  72  58 S5        30.06F HX  94
BLYTHEVILLE    MOSUNNY   89  73  59 E5        30.08F HX  97
$$

ARZ022-023-033-042-044-312000-
CENTRAL ARKANSAS

CITY           SKY/WX    TMP DP  RH WIND       PRES   REMARKS
LITTLE ROCK    MOSUNNY   94  63  35 E10       30.03F HX  95
N LITTLE ROCK  MOSUNNY   92  68  45 SE5       30.03F HX  96
JACKSONVILLE   SUNNY     94  65  38 NE7       30.03F HX  96
SEARCY         SUNNY     92  71  50 SE6       30.06F HX  98
HOT SPRINGS    MOSUNNY   82  65  56 SW10      30.06R THUNDER
RUSSELLVILLE   SUNNY     91  65  41 S3        30.03F HX  93
$$

ARZ036-312000-
EAST ARKANSAS

CITY           SKY/WX    TMP DP  RH WIND       PRES   REMARKS
WEST MEMPHIS   MOSUNNY   89  70  53 VRB7      30.06S HX  94
$$

ARZ050-053-066-070-073-312000-
SOUTHWEST ARKANSAS

CITY           SKY/WX    TMP DP  RH WIND       PRES   REMARKS
ARKADELPHIA    FAIR      96  66  37 SE6       30.03F HX  99
CAMDEN         SUNNY     93  64  38 E3        30.03S HX  95
TEXARKANA      MOSUNNY   92  67  43 SE8G17    30.03F HX  95
EL DORADO      SUNNY     92  63  38 E7        30.04F HX  93
DE QUEEN       MOSUNNY   93  67  42 S8        30.01F HX  96
$$

ARZ056-057-069-312000-
SOUTHEAST ARKANSAS

CITY           SKY/WX    TMP DP  RH WIND       PRES   REMARKS
PINE BLUFF     SUNNY     92  66  42 SE5       30.03F HX  94
STUTTGART      SUNNY     90  70  51 E6        30.05F HX  95
MONTICELLO     MOSUNNY   94  66  39 SW7       30.02F HX  97

$$





USA.gov is the U.S. government's official web portal to all federal, state and local government web resources and services.